Location: Cisewo
(53.3833°N, 14.9000°E)
Time: 11:58:01
(UTC+00:00)

Cosmos 773 Rocket - Pass Details

Date: 18 April 2021
Orbit: 745 x 777 km, 74.1° (Epoch: 14 May)

Event Time Altitude Azimuth Distance (km) Brightness Sun altitude
Rises 23:16:09 0° 334° (NNW) 3,256 8.2 -25.3°
Reaches altitude 10° 23:18:34 10° 339° (NNW) 2,330 7.3 -25.3°
Maximum altitude 23:23:49 60° 59° (ENE) 886 4.4 -25.2°
Enters shadow 23:25:09 46° 113° (ESE) 1,043 4.5 -25.2°
